Location: Cactus School
(34.5700°N, 118.0931°W)
Time: 01:37:56
(UTC-08:00)

A-11 Canister half - Pass Details

Date: 26 November 2019
Orbit: 1515 x 1685 km, 47.2° (Epoch: 10 December)

Event Time Altitude Azimuth Distance (km) Brightness Sun altitude
Rises 19:22:57 0° 295° (WNW) 4,913 12.5 -32.6°
Reaches altitude 10° 19:26:22 10° 302° (WNW) 3,937 11.7 -33.3°
Maximum altitude 19:35:56 43° 12° (NNE) 2,218 9.6 -35.2°
Enters shadow 19:36:01 43° 13° (NNE) 2,218 9.6 -35.2°
